| time (UTC) | temp F | wind direction | speed MPH | gust MPH | rain 1hr in | rain 24hr in | rain mn in | humidity % | barometer mb |
| 20260506230045 | 54 | 304 | 1.0 | 3.0 | 0.00 | 0.69 | 0.68 | 86 | 1009.8 |
| 20260506224531 | 53 | 304 | 0.0 | 1.0 | 0.00 | 0.69 | 0.68 | 86 | 1010.0 |
| 20260506223043 | 53 | 304 | 0.0 | 2.0 | 0.00 | 0.69 | 0.68 | 86 | 1009.8 |
| 20260506221527 | 53 | 304 | 0.0 | 2.0 | 0.00 | 0.69 | 0.68 | 86 | 1009.8 |
| 20260506220027 | 53 | 304 | 0.0 | 2.0 | 0.00 | 0.69 | 0.68 | 85 | 1009.5 |
| 20260506214526 | 53 | 304 | 1.0 | 4.0 | 0.00 | 0.69 | 0.68 | 85 | 1009.7 |
| 20260506213026 | 53 | 325 | 1.0 | 4.0 | 0.00 | 0.69 | 0.68 | 85 | 1009.5 |
| 20260506211532 | 53 | 338 | 0.0 | 4.0 | 0.00 | 0.69 | 0.68 | 87 | 1009.2 |
| 20260506210023 | 52 | 335 | 1.0 | 8.0 | 0.00 | 0.69 | 0.68 | 87 | 1009.0 |
| 20260506204519 | 52 | 24 | 2.0 | 10.0 | 0.00 | 0.69 | 0.68 | 88 | 1008.9 |
| 20260506203024 | 53 | 305 | 1.0 | 5.0 | 0.00 | 0.69 | 0.68 | 90 | 1008.7 |
| 20260506201529 | 53 | 313 | 1.0 | 8.0 | 0.00 | 0.69 | 0.68 | 90 | 1008.6 |
| 20260506200015 | 53 | 332 | 4.0 | 9.0 | 0.00 | 0.69 | 0.68 | 90 | 1008.6 |
| 20260506194515 | 54 | 279 | 4.0 | 10.0 | 0.00 | 0.69 | 0.68 | 93 | 1008.4 |
| 20260506193014 | 53 | 344 | 3.0 | 8.0 | 0.00 | 0.69 | 0.68 | 96 | 1008.4 |
| 20260506191514 | 52 | 360 | 3.0 | 9.0 | 0.00 | 0.69 | 0.68 | 97 | 1008.5 |
| 20260506190012 | 51 | 306 | 2.0 | 8.0 | 0.00 | 0.69 | 0.68 | 97 | 1008.5 |
| 20260506184512 | 51 | 32 | 4.0 | 9.0 | 0.00 | 0.69 | 0.68 | 97 | 1008.5 |
| 20260506183016 | 50 | 313 | 2.0 | 5.0 | 0.00 | 0.69 | 0.68 | 97 | 1008.7 |
| 20260506181510 | 50 | 18 | 3.0 | 8.0 | 0.00 | 0.69 | 0.68 | 97 | 1008.7 |
| 20260506180012 | 50 | 323 | 3.0 | 5.0 | 0.00 | 0.69 | 0.68 | 97 | 1008.6 |
| 20260506174511 | 50 | 346 | 2.0 | 5.0 | 0.00 | 0.69 | 0.68 | 97 | 1008.3 |
| 20260506173006 | 49 | 305 | 3.0 | 7.0 | 0.00 | 0.69 | 0.68 | 97 | 1008.4 |
| 20260506171506 | 49 | 322 | 2.0 | 11.0 | 0.00 | 0.69 | 0.68 | 97 | 1008.2 |
| 20260506170005 | 49 | 346 | 4.0 | 9.0 | 0.00 | 0.69 | 0.68 | 97 | 1008.2 |
| 20260506164506 | 50 | 310 | 4.0 | 8.0 | 0.00 | 0.69 | 0.68 | 97 | 1008.2 |
| 20260506163003 | 50 | 296 | 2.0 | 8.0 | 0.00 | 0.69 | 0.68 | 97 | 1008.1 |
| 20260506161601 | 50 | 355 | 3.0 | 9.0 | 0.00 | 0.69 | 0.68 | 97 | 1007.9 |
| 20260506160200 | 50 | 303 | 4.0 | 7.0 | 0.00 | 0.69 | 0.68 | 97 | 1007.7 |
| 20260506154604 | 49 | 344 | 1.0 | 6.0 | 0.00 | 0.69 | 0.68 | 97 | 1007.0 |
| 20260506153055 | 49 | 35 | 0.0 | 4.0 | 0.00 | 0.69 | 0.68 | 97 | 1006.8 |
| 20260506151553 | 48 | 22 | 3.0 | 9.0 | 0.00 | 0.69 | 0.68 | 97 | 1006.8 |
| 20260506150050 | 48 | 259 | 4.0 | 12.0 | 0.01 | 0.69 | 0.68 | 97 | 1006.7 |
| 20260506144559 | 49 | 332 | 7.0 | 15.0 | 0.03 | 0.69 | 0.68 | 97 | 1006.6 |
| 20260506143044 | 49 | 355 | 6.0 | 17.0 | 0.03 | 0.69 | 0.68 | 97 | 1006.0 |
| 20260506141540 | 50 | 360 | 6.0 | 15.0 | 0.04 | 0.69 | 0.68 | 97 | 1005.6 |
| 20260506140035 | 53 | 355 | 10.0 | 19.0 | 0.03 | 0.68 | 0.67 | 96 | 1005.3 |
| 20260506134534 | 56 | 302 | 6.0 | 11.0 | 0.01 | 0.66 | 0.65 | 97 | 1004.6 |
| 20260506133033 | 56 | 248 | 6.0 | 15.0 | 0.02 | 0.66 | 0.65 | 97 | 1004.3 |
| 20260506131535 | 56 | 232 | 4.0 | 14.0 | 0.02 | 0.65 | 0.64 | 97 | 1004.4 |
| 20260506130058 | 56 | 242 | 4.0 | 11.0 | 0.02 | 0.65 | 0.64 | 97 | 1004.2 |
| 20260506124549 | 56 | 184 | 5.0 | 12.0 | 0.03 | 0.65 | 0.64 | 97 | 1004.0 |
| 20260506123047 | 56 | 197 | 4.0 | 9.0 | 0.03 | 0.64 | 0.63 | 97 | 1004.0 |
| 20260506121551 | 56 | 254 | 4.0 | 10.0 | 0.03 | 0.63 | 0.62 | 97 | 1004.4 |
| 20260506120045 | 56 | 169 | 4.0 | 11.0 | 0.04 | 0.63 | 0.62 | 97 | 1004.3 |
| 20260506114544 | 56 | 190 | 7.0 | 13.0 | 0.03 | 0.62 | 0.61 | 97 | 1004.2 |
| 20260506113043 | 55 | 177 | 4.0 | 16.0 | 0.03 | 0.61 | 0.60 | 96 | 1004.0 |
| 20260506111541 | 55 | 167 | 6.0 | 13.0 | 0.05 | 0.60 | 0.59 | 96 | 1003.8 |
| 20260506110041 | 55 | 169 | 7.0 | 16.0 | 0.08 | 0.59 | 0.57 | 96 | 1003.6 |
| 20260506104540 | 55 | 174 | 8.0 | 12.0 | 0.12 | 0.59 | 0.57 | 96 | 1003.7 |
| 20260506103046 | 55 | 207 | 5.0 | 13.0 | 0.16 | 0.57 | 0.56 | 96 | 1003.6 |
| 20260506101534 | 55 | 192 | 5.0 | 15.0 | 0.18 | 0.55 | 0.54 | 96 | 1004.1 |
| 20260506100033 | 55 | 203 | 4.0 | 12.0 | 0.19 | 0.51 | 0.50 | 95 | 1004.0 |
| 20260506094534 | 55 | 190 | 7.0 | 11.0 | 0.18 | 0.47 | 0.46 | 95 | 1003.9 |
| 20260506093031 | 55 | 173 | 6.0 | 16.0 | 0.17 | 0.41 | 0.40 | 95 | 1004.1 |
| 20260506091532 | 55 | 183 | 7.0 | 12.0 | 0.19 | 0.37 | 0.36 | 94 | 1004.0 |
| 20260506090042 | 55 | 207 | 7.0 | 14.0 | 0.21 | 0.32 | 0.31 | 94 | 1004.0 |
| 20260506084526 | 56 | 186 | 8.0 | 14.0 | 0.19 | 0.28 | 0.28 | 93 | 1004.2 |
| 20260506083024 | 56 | 192 | 6.0 | 11.0 | 0.15 | 0.24 | 0.23 | 92 | 1004.4 |
| 20260506081523 | 56 | 188 | 4.0 | 12.0 | 0.10 | 0.18 | 0.17 | 91 | 1004.5 |
| 20260506073021 | 57 | 287 | 12.0 | 20.0 | 0.06 | 0.09 | 0.08 | 87 | 1004.7 |
| 20260506071517 | 57 | 205 | 7.0 | 15.0 | 0.07 | 0.08 | 0.07 | 87 | 1003.8 |
| 20260506061507 | 57 | 263 | 1.0 | 3.0 | 0.00 | 0.01 | 0.00 | 85 | 1004.7 |
| 20260506050110 | 59 | 221 | 0.0 | 0.0 | 0.00 | 0.01 | 0.00 | 78 | 1005.5 |
| 20260506044556 | 59 | 307 | 0.0 | 0.0 | 0.00 | 0.01 | 0.00 | 79 | 1005.6 |
| 20260506043104 | 58 | 307 | 0.0 | 0.0 | 0.01 | 0.01 | 0.00 | 80 | 1005.6 |
| 20260506041554 | 58 | 311 | 2.0 | 6.0 | 0.01 | 0.01 | 0.00 | 80 | 1005.7 |
| 20260506040101 | 59 | 284 | 4.0 | 9.0 | 0.01 | 0.01 | 0.00 | 80 | 1005.8 |
| 20260506034550 | 60 | 298 | 5.0 | 10.0 | 0.01 | 0.01 | 0.01 | 76 | 1005.8 |
| 20260506033048 | 61 | 279 | 4.0 | 15.0 | 0.00 | 0.00 | 0.00 | 72 | 1005.8 |
| 20260506031549 | 63 | 248 | 11.0 | 20.0 | 0.00 | 0.00 | 0.00 | 64 | 1005.8 |
| 20260506030047 | 66 | 269 | 8.0 | 13.0 | 0.00 | 0.00 | 0.00 | 57 | 1005.7 |
| 20260506024553 | 66 | 232 | 4.0 | 10.0 | 0.00 | 0.00 | 0.00 | 56 | 1005.7 |
| 20260506023042 | 66 | 222 | 5.0 | 10.0 | 0.00 | 0.00 | 0.00 | 56 | 1005.6 |
| 20260506021556 | 66 | 207 | 5.0 | 11.0 | 0.00 | 0.00 | 0.00 | 57 | 1005.8 |
| 20260506020041 | 66 | 207 | 4.0 | 12.0 | 0.00 | 0.00 | 0.00 | 58 | 1005.7 |
| 20260506014541 | 67 | 239 | 6.0 | 17.0 | 0.00 | 0.00 | 0.00 | 58 | 1005.9 |
| 20260506013050 | 67 | 225 | 9.0 | 16.0 | 0.00 | 0.00 | 0.00 | 59 | 1005.9 |
| 20260506011540 | 66 | 205 | 7.0 | 13.0 | 0.00 | 0.00 | 0.00 | 59 | 1005.7 |
| 20260506010039 | 67 | 217 | 2.0 | 7.0 | 0.00 | 0.00 | 0.00 | 59 | 1005.6 |
| 20260506004539 | 67 | 231 | 3.0 | 8.0 | 0.00 | 0.00 | 0.00 | 58 | 1005.6 |
| 20260506003137 | 67 | 232 | 4.0 | 10.0 | 0.00 | 0.00 | 0.00 | 57 | 1005.7 |
| 20260506001515 | 68 | 205 | 3.0 | 9.0 | 0.00 | 0.00 | 0.00 | 57 | 1005.8 |
| 20260506000015 | 68 | 246 | 3.0 | 14.0 | 0.00 | 0.00 | 0.00 | 57 | 1005.8 |
| 20260505234519 | 68 | 242 | 3.0 | 11.0 | 0.00 | 0.00 | 0.00 | 55 | 1005.9 |
| 20260505233013 | 69 | 234 | 5.0 | 14.0 | 0.00 | 0.00 | 0.00 | 54 | 1005.8 |